Home > Weather > Dryden > Past weeks

Flag for Canada Past Weather in Dryden, Ontario, Canada — Yesterday and Last 2 Weeks

Now
72 °F

Passing clouds.


Feels Like: 69 °F
Forecast: 64 / 77 °F
Wind: 14 mph from Southwest

Location: Dryden Airport

Current Time: Aug 24, 2016 at 3:46:13 AM

Latest Report: Aug 24, 2016 at 3:00 AM


Visibility: 9 mi

Pressure: 29.70 "Hg

Humidity: 88%

Dew Point: 68 °F

Location of DrydenLocation

Past Weather in Dryden — Graph

°F

Dryden Temperature Yesterday

Maximum temperature yesterday: 81 °F (at 2:00 PM)
Minimum temperature yesterday: 64 °F (at 6:00 AM)
Average temperature yesterday: 73 °F

High & Low Weather Summary for the Past Weeks

 TemperatureHumidityPressure
High81 °F (Aug 15, 3:00 PM)100% (Aug 12, 6:00 PM)30.12 "Hg (Aug 12, 6:00 PM)
Low45 °F (Aug 21, 4:00 AM)32% (Aug 21, 1:00 PM)29.66 "Hg (Aug 9, 6:00 AM)
Average66 °F78%29.90 "Hg
* Reported Aug 9 2:00 AM — Aug 24 2:00 AM, Dryden, Weather by CustomWeather, © 2016

Note: Actual official high and low records may vary slightly from our data, if they occured in-between our weather recording intervals... More about our weather records

Advertising

Dryden Weather History for the Previous 24 Hours

Scroll right to see more
 ConditionsComfort  
Time TempWeatherWind HumidityBarometerVisibility
2:00 AM
Wed, Aug 24
73 °FClear.14 mph83%29.72 "Hg9 mi
1:00 AM75 °FPassing clouds.14 mph78%29.73 "Hg9 mi
12:00 AM75 °FOvercast.12 mph78%29.74 "Hg9 mi
11:00 PM
Tue, Aug 23
75 °FOvercast.13 mph74%29.72 "Hg9 mi
10:00 PM75 °FPassing clouds.10 mph74%29.72 "Hg9 mi
9:00 PM77 °FOvercast.8 mph74%29.74 "Hg9 mi
8:00 PM77 °FPassing clouds.5 mph69%29.75 "Hg9 mi
7:00 PM81 °FSunny.7 mph66%29.75 "Hg9 mi
6:00 PM81 °FSunny.13 mph66%29.76 "Hg9 mi
5:00 PM81 °FScattered clouds.16 mph62%29.77 "Hg9 mi
4:00 PM81 °FBroken clouds.12 mph62%29.77 "Hg9 mi
3:00 PM81 °FPartly sunny.10 mph62%29.78 "Hg9 mi
2:00 PM81 °FPassing clouds.9 mph62%29.78 "Hg9 mi
1:00 PM75 °FSunny.8 mph74%29.81 "Hg9 mi
12:00 PM73 °FPassing clouds.6 mph78%29.86 "Hg9 mi
11:00 AM72 °FBroken clouds.5 mph78%29.86 "Hg9 mi
10:00 AM70 °FSunny.12 mph83%29.83 "Hg9 mi
9:00 AM68 °FSunny.13 mph88%29.82 "Hg9 mi
8:00 AM66 °FScattered clouds.3 mph94%29.82 "Hg9 mi
7:00 AM64 °FPassing clouds.9 mph94%29.83 "Hg9 mi
6:00 AM64 °FClear.2 mph94%29.82 "Hg9 mi
5:00 AM66 °FClear.6 mph88%29.83 "Hg9 mi
4:00 AM66 °FClear.7 mph88%29.82 "Hg9 mi
3:00 AM66 °FClear.5 mph88%29.81 "Hg9 mi
Weather by CustomWeather, © 2016

See weather overviewHow to use our weather pages